Powrót do katalogu

COSMOS 970

AktywnyMilitariaLEO
NORAD 10531·PAYLOAD·🇷🇺 Russia

Wystrzelony Dec 21, 1977 z Baikonur Cosmodrome

Loading…

Następne Przeloty (najbliższe 24 godziny)

TLE

ŚwieżeSource: Space-Track

Epoka: Sep 14, 2026, 12:42 UTC

1 10531U 77121A   26257.52983112 -.00000059  00000-0  22517-4 0  9997
2 10531  65.8537 305.6323 0140662 158.5308 202.1728 13.59869659811594

Śledź COSMOS 970 w czasie rzeczywistym z AllMySat

Download on the App Store